User: anonymous
Location: Unspecified
(0.0000°N, 0.0000°E)
Time: 11:45:44
(UTC+00:00)
Language:

PLEIADES HR1 - Orbit

View from above orbital plane
View from above orbital plane
View from above satellite
View from above satellite

Ground track
Ground track

The orbit data is extracted from the following two-line orbital elements,

1 38012U 11076F   14204.17480761  .00000091  00000-0  29440-4 0  9065
2 38012 098.1942 278.6263 0001508 078.0666 282.0716 14.58545974138347
Epoch (UTC): 23 July 2014 04:11:43
Eccentricity: 0.0001508
inclination: 98.1942°
perigee height: 697 km
apogee height: 699 km
right ascension of ascending node: 278.6263°
argument of perigee: 78.0666°
revolutions per day: 14.58545974
mean anomaly at epoch: 282.0716°
orbit number at epoch: 13834

The dashed part of the orbit path shows where the satellite is in the earth's shadow,  

DLR